Flag for Saudi Arabia Weather past 2 weeks in Riyadh, Saudi Arabia

Now
86 °F

Sunny.


Feels Like: 83 °F
Forecast: 74 / 94 °F
Wind: 5 mph from South

Location: King Khaled International Airport

Current Time: Oct 25, 2014 at 10:20:01 AM

Latest Report: Oct 25, 2014 at 10:00 AM


Visibility: 5 mi

Pressure: 30.04 "Hg

Humidity: 22%

Dew point: 43 °F

Location of RiyadhLocation

Historic Weather in Riyadh — Graph

°F

Riyadh temperature yesterday

Maximum temperature yesterday: 97 °F (at 2:00 PM)
Minimum temperature yesterday: 70 °F (at 5:00 AM)
Average temperature yesterday: 82 °F

Past Weeks' High & Low Weather Summary

 TemperatureHumidityPressure
High99 °F (Oct 17, 2:00 PM)83% (Oct 18, 7:00 AM)30.18 "Hg (Oct 18, 7:00 AM)
Low66 °F (Oct 23, 6:00 AM)6% (Oct 10, 6:00 PM)29.89 "Hg (Oct 20, 2:00 PM)
Average83 °F26%30.02 "Hg
* Reported Oct 10 9:00 AM — Oct 25 9:00 AM, Riyadh, Weather by CustomWeather, © 2014

Note: Actual official high and low records may vary slightly from our data, if they occured in-between our weather recording intervals... More about our weather records

Advertising

Riyadh weather history for previous 24 hours

 ConditionsComfort  
Time TempWeatherWind HumidityBarometerVisibility
9:00 AM
Oct 25
82 °FSunny.3 mph26%30.04 "Hg5 mi
8:00 AM75 °FSunny.No wind31%30.04 "Hg10 mi
7:00 AM70 °FSunny.5 mph35%30.04 "Hg10 mi
6:00 AM70 °FSunny.5 mph35%30.04 "Hg10 mi
5:00 AM72 °FClear.5 mph31%30.01 "Hg10 mi
4:00 AM72 °FClear.No wind31%30.01 "Hg10 mi
3:00 AM72 °FClear.No wind27%30.01 "Hg10 mi
2:00 AM72 °FClear.No wind29%30.01 "Hg10 mi
1:00 AM73 °FClear.No wind25%30.01 "Hg10 mi
12:00 AM75 °FClear.No wind22%30.01 "Hg10 mi
11:00 PM
Oct 24
77 °FClear.No wind19%30.01 "Hg10 mi
10:00 PM79 °FClear.6 mph18%30.04 "Hg10 mi
9:00 PM82 °FClear.No wind15%30.01 "Hg10 mi
8:00 PM82 °FClear.No wind15%30.01 "Hg10 mi
7:00 PM84 °FClear.No wind16%30.01 "Hg10 mi
6:00 PM88 °FClear.No wind15%29.98 "Hg10 mi
5:00 PM93 °FSunny.6 mph12%29.98 "Hg10 mi
4:00 PM97 °FSunny.3 mph11%29.98 "Hg10 mi
3:00 PM95 °FSunny.8 mph12%29.98 "Hg10 mi
2:00 PM97 °FSunny.9 mph12%29.98 "Hg10 mi
1:00 PM95 °FSunny.7 mph11%29.98 "Hg10 mi
12:00 PM93 °FSunny.7 mph13%30.04 "Hg10 mi
11:00 AM91 °FSunny.8 mph14%30.04 "Hg10 mi
10:00 AM88 °FSunny.12 mph22%30.07 "Hg10 mi
Weather by CustomWeather, © 2014

See weather overviewHow to use our weather pages